Regional Weather Roundup
Issued by NWS State College, PA

Home | Current Version | Previous Version | Text Only | Print | Product List | Glossary On
Versions: 1 2 3 4 5 6 7 8 9 10 11 12 13 14 15 16 17 18 19 20 21 22 23 24 25 26 27 28 29 30 31 32 33 34 35 36 37 38 39 40 41 42 43 44 45 46 47 48 49 50
000
ASUS41 KCTP 280410
RWRCTP

REGIONAL WEATHER ROUNDUP
NATIONAL WEATHER SERVICE STATE COLLEGE PA
1200 AM EDT SAT MAY 28 2016

Note: "fair" indicates few or no clouds below 12,000 feet with no
significant weather and/or obstructions to visibility.

* = STATION THAT DOES NOT REPORT PRECIPITATION /E.G. RAIN...SNOW...ETC/
    THUNDER OR FOG.

PAZ002>004-007>009-013>016-020>023-029>032-280500-
WESTERN PENNSYLVANIA

CITY           SKY/WX    TMP DP  RH WIND       PRES   REMARKS
ERIE           PTCLDY    72  64  76 CALM      30.02S
MEADVILLE      PTCLDY    70  61  73 CALM      30.07S
FRANKLIN*      PTCLDY    68  59  73 CALM      30.10S
NEW CASTLE     FAIR      67  63  87 CALM      30.07R
BEAVER COUNTY  NOT AVBL
BUTLER*        CLEAR     68  63  83 CALM      30.10S
PITTSBURGH INT PTCLDY    74  63  68 S3        30.07R
PITTSBURGH     CLEAR     75  61  61 S8        30.07S
INDIANA*       MOCLDY    72  64  78 CALM      30.13R
LATROBE        CLEAR     68  66  94 CALM      30.10R
WASHINGTON CO* CLEAR     64  63  94 CALM      30.09S
$$

PAZ004>006-010>012-017>019-024>028-033>037-041-042-045-046-049>053-280500-
CENTRAL PENNSYLVANIA

CITY           SKY/WX    TMP DP  RH WIND       PRES   REMARKS
BRADFORD       CLOUDY    61  59  93 CALM      30.12R
DUBOIS         PTCLDY    69  61  75 CALM      30.10R
CLEARFIELD     PTCLDY    67  61  81 CALM      30.11R
JOHNSTOWN      PTCLDY    68  58  70 SW6       30.15R
ALTOONA        PTCLDY    69  64  84 CALM      30.12S
STATE COLLEGE  PTCLDY    71  65  81 W7        30.10R
WILLIAMSPORT   CLOUDY    71  67  87 CALM      30.05R
SELINSGROVE    CLOUDY    72  65  78 CALM      30.07S
FT INDIANTOWN  CLOUDY    73  67  79 SW5       30.08R
CAPITAL CITY   MOCLDY    72  67  84 NW3       30.08S
HARRISBURG     CLOUDY    74  66  76 CALM      30.07S
YORK           PTCLDY    70  66  87 CALM      30.08S
$$

PAZ038>040-043-044-047-048-054-055-060>062-067>071-280500-
EASTERN PENNSYLVANIA

CITY           SKY/WX    TMP DP  RH WIND       PRES   REMARKS
SCRANTON       PTCLDY    71  65  81 CALM      30.07R
MOUNT POCONO   CLEAR     70  65  84 W6        30.12S
ALLENTOWN      PTCLDY    77  67  71 SW7       30.07R
QUAKERTOWN*    CLEAR     75  68  78 SW5       30.09S
READING        CLOUDY    76  66  71 S10       30.07R
LANCASTER      PTCLDY    74  66  76 SW9       30.08R
COATESVILLE    CLEAR     73  66  78 VRB3      30.12S
POTTSTOWN      CLEAR     75  68  78 CALM      30.10R
BLUE BELL      CLEAR     73  64  73 SW3       30.08S
DOYLESTOWN     CLEAR     75  66  73 S6        30.08R
WILLOW GROVE   NOT AVBL
NORTH PHILA    PTCLDY    77  64  64 S6        30.10R
PHILADELPHIA   PTCLDY    74  62  66 S8        30.10R
$$




USA.gov is the U.S. government's official web portal to all federal, state and local government web resources and services.